TimeEDT,TemperatureF,Dew PointF,Humidity,Sea Level PressureIn,VisibilityMPH,Wind Direction,Wind SpeedMPH,Gust SpeedMPH,PrecipitationIn,Events,Conditions,WindDirDegrees,DateUTC
12:53 AM,50.0,48.0,93,30.08,10.0,Calm,Calm,-,N/A,,Clear,0,2013-06-04 04:53:00
1:53 AM,48.9,46.9,93,30.09,7.0,Calm,Calm,-,N/A,,Clear,0,2013-06-04 05:53:00
2:53 AM,48.0,46.0,93,30.10,8.0,Calm,Calm,-,N/A,,Clear,0,2013-06-04 06:53:00
3:53 AM,48.0,46.0,93,30.11,7.0,Calm,Calm,-,N/A,,Clear,0,2013-06-04 07:53:00
4:53 AM,48.0,46.0,93,30.12,4.0,Calm,Calm,-,N/A,,Clear,0,2013-06-04 08:53:00
5:53 AM,46.9,45.0,93,30.14,7.0,Calm,Calm,-,N/A,,Clear,0,2013-06-04 09:53:00
6:53 AM,48.9,46.9,93,30.15,6.0,Calm,Calm,-,N/A,,Clear,0,2013-06-04 10:53:00
7:53 AM,55.9,48.9,77,30.16,10.0,Calm,Calm,-,N/A,,Clear,0,2013-06-04 11:53:00
8:53 AM,61.0,45.0,56,30.17,10.0,East,5.8,-,N/A,,Clear,80,2013-06-04 12:53:00
9:53 AM,64.9,44.1,47,30.15,10.0,ENE,11.5,17.3,N/A,,Clear,70,2013-06-04 13:53:00
10:53 AM,68.0,44.1,42,30.15,10.0,East,9.2,-,N/A,,Clear,100,2013-06-04 14:53:00
11:53 AM,70.0,42.1,36,30.15,10.0,ENE,13.8,-,N/A,,Clear,70,2013-06-04 15:53:00
12:53 PM,72.0,41.0,33,30.16,10.0,East,12.7,16.1,N/A,,Clear,90,2013-06-04 16:53:00
1:53 PM,73.0,39.0,29,30.14,10.0,ENE,8.1,-,N/A,,Clear,70,2013-06-04 17:53:00
2:53 PM,75.0,41.0,29,30.12,10.0,ESE,8.1,-,N/A,,Clear,110,2013-06-04 18:53:00
3:53 PM,75.0,41.0,29,30.10,10.0,ESE,10.4,-,N/A,,Clear,110,2013-06-04 19:53:00
4:53 PM,77.0,44.1,31,30.11,10.0,Variable,5.8,-,N/A,,Clear,0,2013-06-04 20:53:00
5:53 PM,75.9,42.1,30,30.09,10.0,East,10.4,-,N/A,,Clear,100,2013-06-04 21:53:00
6:53 PM,73.9,44.1,34,30.09,10.0,East,4.6,-,N/A,,Clear,90,2013-06-04 22:53:00
7:53 PM,71.1,46.0,41,30.07,10.0,East,6.9,-,N/A,,Clear,80,2013-06-04 23:53:00
8:53 PM,62.1,51.1,67,30.08,10.0,Calm,Calm,-,N/A,,Clear,0,2013-06-05 00:53:00
9:53 PM,59.0,48.9,69,30.09,10.0,NE,3.5,-,N/A,,Clear,50,2013-06-05 01:53:00
10:53 PM,59.0,48.0,67,30.09,10.0,East,4.6,-,N/A,,Clear,90,2013-06-05 02:53:00
11:53 PM,55.9,48.9,77,30.10,10.0,Calm,Calm,-,N/A,,Clear,0,2013-06-05 03:53:00